Wind_Speed
115 119 127 137 126 106 90 76 65 51 41 35 31 28 27 25 31 43 54 56 66 71 75 92 107 113 116 119 126 148 150 151 146 141 142 137 136 135 135 131 125 119 116
116 121 127 132 126 112 91 77 67 53 44 38 33 29 28 27 27 33 45 53 55 67 72 78 93 105 113 115 117 122 138 146 148 143 138 138 136 136 135 132 127 120 115
112 125 126 131 135 118 94 81 70 58 46 42 36 32 29 28 29 29 35 45 50 53 68 77 82 92 103 108 111 113 113 121 129 137 143 139 137 137 127 128 123 120 114
114 118 127 133 138 125 98 85 74 64 51 43 38 34 33 28 28 30 30 36 45 50 54 71 82 88 93 102 108 111 111 113 117 120 128 130 138 136 130 131 124 121 114
111 119 128 134 136 131 99 87 76 68 56 46 41 36 35 32 29 29 28 32 38 47 49 55 72 89 92 94 104 109 111 112 113 116 115 120 126 133 136 136 132 121 116
111 120 126 134 139 134 102 88 77 71 60 50 44 39 34 35 31 31 30 30 35 41 48 52 59 76 92 94 95 98 104 112 114 113 114 116 118 123 130 134 131 128 123
110 120 128 134 135 135 105 89 79 73 65 54 47 39 34 32 32 30 30 29 32 38 43 52 56 64 78 89 89 93 97 104 106 108 110 112 113 114 118 122 126 125 125
111 119 128 129 136 134 105 90 81 74 68 59 51 43 34 30 30 30 30 30 31 35 40 45 55 61 71 80 84 89 93 95 97 99 103 106 110 110 109 109 111 113 114
112 119 126 128 135 126 110 93 83 77 71 62 54 47 39 30 27 28 28 29 30 33 37 42 49 59 66 73 81 87 88 90 91 92 95 100 102 101 101 103 102 103 100
116 119 128 132 136 130 116 91 84 79 75 66 60 50 43 34 29 26 27 26 28 30 33 38 44 53 62 69 76 85 87 86 89 90 91 91 92 90 91 94 96 93 88
121 122 128 131 136 133 118 91 83 77 76 70 63 53 47 35 33 28 25 26 27 27 30 35 40 47 57 65 70 79 84 86 83 85 87 85 85 89 89 89 87 86 88
126 124 129 134 136 131 125 94 83 77 73 72 64 55 48 41 35 31 25 24 25 27 28 32 36 43 51 60 65 72 80 83 82 81 81 85 87 89 86 85 85 85 82
125 127 131 135 134 134 114 93 81 77 73 70 64 55 47 42 39 31 26 22 22 25 28 31 35 39 46 52 59 67 74 81 83 82 80 82 82 86 84 82 81 79 77
124 127 131 138 139 132 118 91 80 76 74 69 62 53 45 43 36 37 27 20 20 23 25 28 31 35 42 48 54 61 68 77 79 83 82 80 78 80 82 79 78 77 76
125 127 129 139 142 128 113 88 77 76 73 72 63 56 44 42 37 36 33 23 19 20 23 27 31 32 35 43 49 54 64 69 77 81 78 79 78 79 77 77 77 76 75
123 127 133 139 140 126 105 87 74 73 71 70 62 56 45 41 36 34 34 28 21 19 23 26 28 30 33 38 46 51 58 65 71 77 77 79 78 75 74 79 75 76 75
125 127 133 142 140 124 108 82 74 71 70 67 60 55 46 41 36 33 30 28 23 18 20 23 23 24 26 32 39 48 54 59 67 73 76 79 76 73 73 74 71 73 76
129 126 134 138 141 117 107 81 71 68 67 65 58 52 45 40 38 31 31 27 21 17 17 20 22 24 27 31 36 41 50 58 63 68 73 77 77 75 72 71 67 70 69
123 135 139 144 136 109 102 78 68 67 67 64 56 50 42 39 38 32 31 26 21 16 13 18 21 25 28 31 34 40 46 52 60 65 71 74 74 74 73 70 70 65 65
128 135 137 135 123 105 93 74 65 65 66 65 56 48 40 34 35 33 29 28 21 15 12 14 20 23 26 29 32 38 43 47 54 62 67 72 74 74 74 72 67 66 64
128 138 129 127 111 101 81 69 63 62 63 63 55 48 40 31 30 29 27 27 21 16 10 12 17 19 22 26 30 35 40 44 48 55 63 69 72 74 74 71 69 64 63
127 138 138 128 112 93 77 65 60 60 60 59 53 46 40 32 28 28 26 25 22 16 13 8 14 19 20 23 28 32 38 43 46 49 55 65 69 72 75 73 70 67 64
136 141 141 119 105 84 74 64 58 59 59 55 49 44 37 31 28 26 25 24 22 18 13 11 9 15 20 22 25 29 34 40 45 48 51 55 64 70 73 75 73 69 66
138 140 130 112 102 82 72 60 56 57 57 52 47 41 34 29 27 25 23 23 22 19 14 11 11 10 16 22 23 26 30 35 40 45 51 54 56 64 70 75 75 72 70
143 131 125 107 95 75 65 56 54 56 55 49 45 39 33 29 27 25 23 21 22 20 17 12 11 12 13 16 23 25 27 31 36 41 46 51 55 58 63 70 72 73 73
130 124 105 98 85 72 62 55 52 54 52 46 42 37 33 30 27 25 23 21 21 20 19 16 12 12 13 15 17 24 28 30 33 37 42 46 50 54 57 61 69 74 75
Wind_Direction
348 353 355 354 352 350 350 349 349 347 346 336 321 307 294 275 253 244 246 242 235 233 229 227 230 231 230 230 229 230 230 233 236 239 240 243 244 245 247 250 251 255 260
349 352 352 353 352 351 351 350 349 347 349 341 326 311 297 282 261 248 246 249 241 233 231 228 227 231 232 232 231 231 232 233 234 239 238 242 244 246 247 251 253 255 259
349 350 350 352 352 351 350 351 350 349 351 344 329 317 305 290 275 260 248 247 247 238 232 230 229 229 232 234 233 233 233 233 234 236 237 241 244 247 248 251 250 256 255
349 349 352 351 352 351 350 351 350 350 351 348 334 324 313 303 285 269 257 249 245 242 233 232 230 230 232 233 234 233 234 234 233 234 236 238 241 243 244 249 248 252 254
345 350 351 353 351 350 348 350 351 349 350 350 340 330 318 309 296 284 270 257 245 241 238 231 229 230 232 233 233 234 233 233 234 235 236 239 241 241 243 244 247 248 251
346 349 349 350 352 348 346 348 350 349 350 351 344 335 323 311 302 289 279 263 251 240 236 234 228 227 230 233 233 234 234 232 233 234 236 237 239 240 242 244 245 248 246
344 347 349 348 352 348 345 346 349 350 350 351 346 339 327 313 303 291 281 272 256 245 236 232 231 227 228 231 232 234 234 232 233 232 235 236 238 240 241 244 246 246 249
343 346 346 348 351 350 346 346 348 349 350 349 347 341 331 320 304 291 281 270 259 248 238 232 229 227 226 228 229 231 231 232 233 232 233 235 237 238 240 243 246 249 252
342 346 345 349 350 351 348 344 346 348 349 348 347 343 335 325 311 293 279 271 258 248 241 233 228 226 226 226 227 228 228 228 228 228 230 234 235 237 239 242 245 248 250
343 343 346 347 350 349 347 343 343 347 348 348 346 341 338 329 321 301 283 269 259 247 240 235 230 227 226 225 225 225 225 224 224 224 226 229 232 233 235 239 242 244 246
340 343 344 347 348 350 348 342 342 345 347 347 345 340 337 333 327 314 291 273 261 250 241 235 232 226 225 223 222 223 222 222 221 224 224 225 229 231 232 236 240 244 247
340 342 342 344 343 348 347 341 341 342 346 346 344 339 335 334 331 322 306 282 262 253 244 236 230 230 225 225 222 221 220 221 219 220 221 223 223 231 232 235 239 242 245
337 340 342 343 344 346 344 341 339 340 344 346 343 339 334 335 331 327 315 294 267 251 247 241 232 227 229 226 223 222 219 218 219 218 220 224 224 229 234 235 237 239 241
336 337 341 341 342 344 345 340 337 339 341 344 342 339 333 334 337 330 326 305 274 255 245 246 244 233 225 225 224 222 220 219 218 219 220 223 224 227 230 232 235 237 238
335 336 339 340 341 342 344 338 338 337 340 341 340 338 334 336 335 335 329 318 284 262 246 236 235 237 229 224 223 222 220 219 219 220 218 221 223 226 229 229 231 235 238
331 336 336 339 339 342 340 336 336 336 337 340 337 335 333 335 333 335 326 321 300 267 252 243 238 236 233 226 222 220 221 218 218 219 218 220 223 225 226 229 231 233 237
331 334 334 335 336 339 340 335 333 334 335 338 335 333 331 331 334 331 328 321 308 280 259 248 241 236 233 231 226 221 220 219 217 218 218 221 222 223 226 228 232 231 233
329 329 331 333 336 337 339 332 331 332 333 336 333 331 328 328 331 329 332 324 313 288 263 248 241 234 233 230 227 224 220 217 217 216 217 219 221 223 225 228 231 233 233
326 328 330 331 334 336 338 330 329 329 331 333 332 328 328 326 329 329 328 329 321 300 266 246 237 236 239 240 229 224 224 218 217 216 215 218 219 221 226 226 229 231 235
323 327 330 331 334 334 335 328 327 327 329 330 329 326 326 325 326 326 328 327 321 314 284 247 236 235 235 235 230 224 225 224 217 216 216 215 216 218 222 225 227 229 231
324 327 331 333 334 333 331 327 324 325 327 328 326 324 323 320 321 322 322 327 323 318 307 259 243 235 231 228 228 224 225 227 223 216 216 215 215 216 220 221 225 225 230
321 327 327 331 331 331 329 324 322 322 325 325 322 321 320 316 316 320 320 323 326 318 314 291 242 238 230 228 225 223 222 223 225 223 216 216 216 214 216 219 223 223 225
318 321 325 328 329 327 324 321 320 320 322 322 319 317 316 311 310 314 317 317 324 320 309 306 281 237 234 229 227 225 219 221 220 220 221 218 217 216 217 216 219 221 223
317 322 325 327 325 324 320 318 317 317 319 319 317 315 311 306 303 304 311 310 313 319 312 299 293 271 236 228 227 227 224 220 220 222 220 221 217 217 217 217 219 219 222
318 322 322 323 323 320 317 314 314 314 316 316 314 313 307 302 295 295 300 306 304 307 311 304 287 279 265 238 228 226 225 226 225 223 222 223 223 219 217 218 217 216 220
320 320 320 320 318 315 312 309 310 311 313 311 309 309 305 299 290 287 288 294 298 298 300 303 288 270 266 261 236 226 227 227 225 226 225 222 221 222 222 218 215 216 218
Height
10372 10348 10326 10303 10277 10258 10240 10223 10207 10192 10181 10173 10166 10160 10157 10155 10155 10157 10160 10170 10182 10193 10206 10219 10234 10248 10265 10279 10294 10316 10332 10345 10358 10370 10380 10392 10404 10414 10426 10438 10450 10459 10466
10363 10341 10320 10296 10270 10250 10233 10217 10201 10187 10174 10166 10159 10153 10149 10147 10146 10148 10149 10153 10163 10175 10187 10199 10213 10226 10242 10257 10276 10286 10306 10324 10341 10354 10361 10370 10382 10391 10404 10417 10429 10442 10448
10353 10334 10311 10288 10265 10243 10225 10209 10194 10180 10169 10160 10152 10145 10140 10138 10136 10138 10140 10141 10148 10158 10168 10179 10193 10207 10220 10234 10252 10268 10287 10302 10319 10332 10344 10354 10359 10371 10382 10395 10406 10420 10430
10345 10324 10304 10284 10262 10239 10217 10202 10187 10173 10162 10153 10144 10136 10130 10128 10127 10126 10129 10131 10133 10141 10152 10161 10174 10188 10200 10214 10229 10247 10265 10284 10297 10311 10323 10335 10341 10350 10361 10373 10385 10396 10407
10335 10316 10298 10279 10254 10232 10210 10195 10181 10168 10156 10144 10137 10129 10121 10117 10116 10116 10119 10121 10124 10127 10136 10146 10156 10169 10180 10194 10210 10227 10245 10262 10277 10289 10302 10314 10324 10334 10343 10351 10362 10375 10386
10327 10309 10291 10269 10247 10222 10204 10188 10174 10161 10149 10137 10129 10122 10115 10108 10106 10104 10105 10109 10112 10117 10123 10130 10141 10152 10164 10176 10193 10209 10225 10240 10255 10268 10283 10295 10303 10314 10322 10331 10342 10350 10367
10317 10299 10284 10262 10241 10218 10198 10182 10168 10154 10141 10131 10122 10116 10108 10103 10098 10095 10095 10097 10100 10104 10111 10116 10124 10136 10149 10161 10178 10192 10205 10219 10236 10252 10262 10274 10285 10295 10306 10316 10324 10333 10341
10308 10292 10276 10256 10236 10213 10192 10177 10163 10149 10135 10122 10114 10107 10101 10096 10092 10088 10087 10087 10088 10091 10097 10103 10110 10120 10130 10143 10160 10173 10187 10202 10219 10237 10245 10257 10265 10277 10287 10296 10305 10316 10325
10300 10284 10268 10250 10230 10207 10187 10170 10156 10142 10129 10116 10107 10100 10093 10089 10085 10080 10078 10078 10079 10081 10085 10091 10097 10105 10114 10127 10142 10155 10171 10185 10201 10216 10225 10235 10247 10260 10271 10278 10289 10298 10307
10293 10275 10260 10241 10224 10204 10182 10164 10150 10137 10123 10111 10100 10092 10087 10080 10076 10072 10068 10068 10068 10072 10076 10080 10085 10093 10101 10111 10125 10139 10154 10167 10181 10196 10208 10218 10229 10242 10252 10260 10269 10280 10290
10281 10267 10250 10232 10215 10196 10175 10159 10144 10132 10119 10106 10095 10085 10079 10074 10069 10064 10061 10059 10059 10061 10065 10070 10074 10080 10089 10098 10110 10123 10139 10152 10167 10181 10193 10204 10213 10223 10235 10245 10254 10264 10274
10272 10255 10241 10222 10204 10188 10170 10151 10138 10125 10114 10101 10090 10080 10072 10065 10061 10057 10052 10050 10050 10051 10054 10059 10063 10068 10074 10084 10098 10109 10124 10137 10153 10165 10177 10187 10197 10206 10220 10231 10241 10250 10261
10261 10246 10229 10212 10195 10178 10160 10143 10129 10118 10106 10096 10085 10075 10066 10060 10053 10049 10045 10042 10042 10043 10045 10048 10052 10056 10063 10071 10083 10095 10108 10120 10135 10150 10161 10172 10187 10196 10207 10219 10229 10239 10249
10252 10236 10219 10205 10185 10165 10153 10136 10122 10110 10099 10089 10080 10072 10062 10054 10049 10040 10038 10035 10033 10033 10035 10039 10042 10047 10052 10059 10069 10081 10093 10106 10121 10133 10148 10159 10172 10183 10193 10205 10216 10225 10236
10242 10226 10211 10196 10178 10158 10140 10127 10115 10102 10091 10079 10071 10063 10057 10049 10043 10036 10030 10028 10025 10024 10026 10027 10030 10035 10042 10049 10056 10068 10079 10093 10106 10118 10133 10145 10157 10168 10180 10192 10203 10213 10223
10229 10215 10201 10186 10170 10153 10134 10118 10107 10097 10087 10075 10064 10056 10050 10043 10038 10034 10027 10022 10018 10016 10016 10018 10022 10026 10032 10039 10047 10055 10065 10079 10092 10105 10119 10129 10143 10156 10168 10178 10190 10201 10211
10214 10203 10188 10175 10159 10142 10128 10114 10100 10090 10080 10070 10059 10050 10043 10037 10032 10028 10024 10017 10011 10009 10008 10011 10015 10020 10024 10030 10036 10044 10052 10065 10079 10090 10105 10117 10131 10144 10155 10165 10176 10188 10199
10201 10188 10177 10164 10148 10131 10117 10102 10093 10084 10076 10066 10055 10045 10037 10030 10025 10022 10018 10012 10008 10004 10003 10004 10007 10011 10016 10020 10026 10034 10042 10052 10064 10078 10090 10104 10118 10130 10142 10153 10164 10174 10186
10186 10176 10164 10147 10135 10118 10104 10092 10081 10073 10065 10058 10050 10040 10032 10024 10018 10015 10010 10007 10003 9999 9998 9998 10001 10005 10008 10012 10019 10024 10030 10041 10052 10063 10076 10089 10105 10118 10128 10140 10150 10162 10172
10173 10164 10148 10134 10119 10105 10093 10082 10072 10062 10054 10047 10041 10035 10027 10021 10015 10010 10006 10002 9999 9996 9993 9994 9996 9999 10001 10004 10010 10016 10020 10028 10040 10050 10061 10075 10089 10104 10115 10126 10138 10149 10160
10159 10147 10134 10119 10106 10091 10080 10070 10063 10054 10046 10038 10032 10026 10020 10015 10011 10007 10003 9999 9995 9992 9989 9988 9990 9992 9994 9998 10002 10007 10013 10019 10028 10039 10048 10060 10073 10088 10099 10113 10125 10139 10146
10144 10133 10121 10104 10091 10079 10070 10060 10052 10045 10037 10030 10023 10017 10011 10007 10004 10001 9997 9995 9990 9987 9985 9984 9985 9986 9988 9991 9994 9999 10004 10010 10017 10027 10038 10047 10060 10074 10086 10099 10110 10124 10134
10124 10115 10104 10091 10077 10066 10058 10050 10041 10033 10027 10021 10016 10009 10003 9999 9996 9994 9991 9989 9987 9984 9982 9980 9979 9981 9983 9985 9988 9992 9997 10002 10007 10014 10024 10036 10047 10059 10072 10084 10096 10108 10120
10107 10097 10082 10073 10064 10052 10043 10036 10030 10023 10017 10010 10006 10001 9997 9992 9989 9987 9986 9984 9982 9980 9977 9976 9975 9975 9977 9980 9981 9984 9989 9994 9999 10005 10011 10020 10032 10044 10055 10068 10080 10094 10105
10090 10077 10065 10053 10047 10037 10028 10023 10017 10011 10005 9999 9996 9992 9988 9985 9982 9980 9979 9978 9976 9974 9972 9971 9971 9970 9971 9973 9975 9978 9981 9985 9990 9995 10002 10009 10017 10027 10039 10050 10064 10077 10089
10065 10056 10046 10037 10030 10021 10015 10009 10003 9999 9994 9989 9985 9983 9979 9976 9974 9973 9972 9971 9970 9969 9967 9965 9966 9966 9966 9966 9968 9971 9974 9977 9982 9986 9991 9998 10005 10014 10024 10034 10046 10059 10072